Flag for Croatia Weather past 2 weeks in Dubrovnik, Croatia

Now
86 °F

Sunny.


Feels Like: 85 °F
Forecast: 73 / 86 °F
Wind: 3 mph from North

Location: Dubrovnik / Cilipi

Current Time: Aug 31, 2015 at 8:45:58 PM

Latest Report: Aug 31, 2015 at 8:00 PM


Visibility: 10 mi

Pressure: 30.01 "Hg

Humidity: 38%

Dew point: 57 °F

Location of DubrovnikLocation

Historic Weather in Dubrovnik — Graph

°F

Dubrovnik temperature yesterday

Maximum temperature yesterday: 90 °F (at 9:30 AM)
Minimum temperature yesterday: 81 °F (at 5:30 AM)
Average temperature yesterday: 86 °F

Past Weeks' High & Low Weather Summary

 TemperatureHumidityPressure
High93 °F (Aug 31, 2:30 PM)100% (Aug 17, 2:30 AM)30.18 "Hg (Aug 17, 2:30 AM)
Low64 °F (Aug 16, 10:30 PM)27% (Aug 30, 1:30 AM)29.74 "Hg (Aug 16, 8:30 PM)
Average77 °F61%30.01 "Hg
* Reported Aug 16 8:00 PM — Aug 31 8:00 PM, Dubrovnik, Weather by CustomWeather, © 2015

Note: Actual official high and low records may vary slightly from our data, if they occured in-between our weather recording intervals... More about our weather records

Advertising

Dubrovnik weather history for previous 24 hours

 ConditionsComfort  
Time TempWeatherWind HumidityBarometerVisibility
8:00 PM
Mon, Aug 31
86 °FSunny.3 mph38%30.01 "Hg10 mi
7:30 PM84 °FPassing clouds.5 mph45%30.01 "HgN/A
7:00 PM82 °FSunny.8 mph51%30.01 "Hg10 mi
6:30 PM84 °FSunny.7 mph45%30.01 "Hg10 mi
6:00 PM86 °FSunny.7 mph46%30.01 "Hg10 mi
5:30 PM88 °FPassing clouds.7 mph35%30.01 "HgN/A
5:00 PM90 °FPassing clouds.6 mph36%30.04 "HgN/A
4:30 PM90 °FPassing clouds.6 mph38%30.04 "HgN/A
4:00 PM90 °FPassing clouds.7 mph38%30.04 "HgN/A
3:30 PM91 °FPassing clouds.5 mph34%30.07 "HgN/A
3:00 PM91 °FSunny.3 mph32%30.07 "Hg10 mi
2:30 PM93 °FSunny.2 mph34%30.07 "Hg10 mi
2:00 PM91 °FPassing clouds.5 mph36%30.07 "HgN/A
1:30 PM90 °FPassing clouds.6 mph41%30.09 "HgN/A
1:00 PM90 °FPassing clouds.6 mph38%30.09 "HgN/A
12:30 PM90 °FPassing clouds.6 mph38%30.09 "HgN/A
12:00 PM88 °FPassing clouds.5 mph40%30.09 "HgN/A
11:30 AM90 °FSunny.3 mph41%30.09 "Hg10 mi
11:00 AM90 °FPassing clouds.5 mph41%30.09 "HgN/A
10:30 AM88 °FPassing clouds.5 mph40%30.09 "HgN/A
10:00 AM88 °FSunny.3 mph38%30.09 "Hg10 mi
9:30 AM86 °FSunny.3 mph40%30.09 "Hg10 mi
9:00 AM88 °FSunny.No wind33%30.09 "Hg10 mi
8:30 AM82 °FPassing clouds.3 mph42%30.09 "HgN/A
8:00 AM79 °FPassing clouds.3 mph48%30.09 "HgN/A
7:30 AM79 °FSunny.5 mph42%30.09 "Hg10 mi
7:00 AM75 °FPassing clouds.7 mph47%30.09 "HgN/A
6:30 AM75 °FClear.No wind47%30.09 "Hg10 mi
6:00 AM73 °FClear.2 mph50%30.07 "Hg10 mi
5:30 AM75 °FClear.2 mph47%30.07 "Hg10 mi
5:00 AM75 °FPassing clouds.5 mph47%30.07 "HgN/A
4:30 AM77 °FPassing clouds.3 mph44%30.09 "HgN/A
4:00 AM81 °FClear.5 mph39%30.09 "Hg10 mi
3:30 AM82 °FClear.6 mph37%30.09 "Hg10 mi
3:00 AM84 °FPassing clouds.8 mph35%30.09 "HgN/A
2:30 AM84 °FPassing clouds.9 mph35%30.09 "HgN/A
2:00 AM84 °FPassing clouds.8 mph35%30.09 "HgN/A
1:30 AM84 °FPassing clouds.7 mph35%30.09 "HgN/A
1:00 AM84 °FPassing clouds.9 mph35%30.09 "HgN/A
12:30 AM84 °FPassing clouds.5 mph33%30.09 "HgN/A
12:00 AM84 °FClear.3 mph35%30.12 "Hg10 mi
11:30 PM
Sun, Aug 30
86 °FPassing clouds.12 mph31%30.09 "HgN/A
11:00 PM86 °FClear.6 mph31%30.09 "Hg10 mi
10:30 PM84 °FPassing clouds.7 mph33%30.12 "HgN/A
9:30 PM86 °FClear.6 mph33%30.12 "Hg10 mi
9:00 PM86 °FPassing clouds.6 mph31%30.12 "HgN/A
8:30 PM84 °FClear.6 mph33%30.12 "Hg10 mi
8:00 PM81 °FSunny.7 mph54%30.09 "Hg10 mi
Weather by CustomWeather, © 2015

See weather overviewHow to use our weather pages